Regional Weather Roundup
Issued by NWS San Diego, CA

Home | Current Version | Previous Version | Text Only | Print | Product List | Glossary On
Versions: 1 2 3 4 5 6 7 8 9 10 11 12 13 14 15 16 17 18 19 20 21 22 23 24 25 26 27 28 29 30 31 32 33 34 35 36 37 38 39 40 41 42 43 44 45 46 47 48 49 50
000
ASUS46 KSGX 280710
RWRSGX

SAN DIEGO HOURLY WEATHER ROUNDUP
NATIONAL WEATHER SERVICE SAN DIEGO CA
1100 PM PST THU NOV 27 2014

NOTE: "FAIR" INDICATES FEW OR NO CLOUDS BELOW 12,000 FEET WITH NO
SIGNIFICANT WEATHER AND/OR OBSTRUCTIONS TO VISIBILITY.

CAZ042-043-060-061-PZZ750-775-280800-

GREATER SAN DIEGO AREA

CITY           SKY/WX    TMP DP  RH WIND       PRES   REMARKS
LINDBERGH FLD  PTCLDY    62  35  36 CALM      30.02F
POINT LOMA       N/A     66  44  45 NE3         N/A
NATIONAL CITY    N/A     56  41  56 CALM      30.02S
CHULA VISTA      N/A     57  36  46 CALM      29.94F
BROWN FIELD    CLEAR     58  28  32 E5        30.02S
MIRAMAR MCAS   CLEAR     56  31  38 E7        30.02S
MONTGOMERY FLD CLEAR     59  35  40 CALM      30.02S

$$

NORTH SAN DIEGO COUNTY

CITY           SKY/WX    TMP DP  RH WIND       PRES   REMARKS
CAMP PENDLETON CLEAR     50  28  42 MISG      30.02S
OCEANSIDE AP   CLEAR     46  35  65 CALM      30.01S
OCEANSIDE HBR    N/A     56  37  48 E9        30.03F
VISTA            N/A     56  31  37 CALM      29.99F
CARLSBAD       CLEAR     59  31  34 CALM      30.01S
DEL MAR          N/A     62  36  37 CALM      30.03F
LA JOLLA SCRIP   N/A     67  36  32 CALM      29.98F
FALLBROOK        N/A     64  23  20 CALM      30.02F
ESCONDIDO        N/A     56  33  42 CALM      30.03S
SAN MARCOS       N/A     61  32  34 CALM      29.99F
POWAY            N/A     50  36  57 CALM      30.04S

$$

EAST SAN DIEGO COUNTY

CITY           SKY/WX    TMP DP  RH WIND       PRES   REMARKS
RAMONA         NOT AVBL
SANTEE LAKES     N/A     52  35  51 CALM      30.04S
LA MESA          N/A     64  35  34 E3        29.95F
JAMUL            N/A     56  28  34 CALM      30.01F
DESCANSO N       N/A     53  22  29 E3        29.92S
MT. LAGUNA OBS   N/A     62   9  12 CALM      29.82F
CAMPO            N/A     50  18  28 NE5       30.08F

$$

ORANGE COUNTY AND THE LOS ANGELES BASIN

CITY           SKY/WX    TMP DP  RH WIND       PRES   REMARKS
JOHN WAYNE AP  CLEAR     61  39  44 CALM      30.00F
LAKE FOREST FR   N/A     65  20  18 CALM      29.89F
SANTA ANA        N/A     54  44  67 CALM      29.96F
HUNTINGTON BCH   N/A     51  49  91 CALM      30.03S
LOS ALAMITOS   FAIR      54  46  76 N2        30.01S
FULLERTON      CLEAR     57  41  55 CALM      30.00F
LONG BEACH     CLEAR     57  46  66 CALM      30.01S
L.A. AP        CLEAR     61  49  64 E3        30.01F
L.A. DOWNTOWN  CLEAR     60  43  53 CALM      30.01S

$$

THE INLAND EMPIRE

CITY           SKY/WX    TMP DP  RH WIND       PRES   REMARKS
CORONA         CLEAR     45  32  60 W3        30.04F
CHINO          CLEAR     51  38  60 N3        30.05F
ONTARIO        PTCLDY    60  30  32 NE3       30.04F
RIVERSIDE AP   CLEAR     60  28  29 E6        30.04F
RIV CYN CREST    N/A     63  36  37 CALM        N/A
MORENO VALLEY    N/A     64  28  25 CALM      29.23S
MARCH ARB      CLEAR     49  16  26 CALM      30.06F
PERRIS           N/A     60  31  33 CALM      30.06F
MENIFEE          N/A     52  32  46 CALM      30.12S
HEMET EAST       N/A     66  15  14 CALM      30.03F
FRENCH VALLEY  FAIR      54  27  35 NE3       30.06F
TEMECULA         N/A     56  34  42 CALM      30.03S

$$

SAN BERNARDINO AND RIVERSIDE COUNTY MOUNTAINS

CITY           SKY/WX    TMP DP  RH WIND       PRES   REMARKS
BIG BEAR AP    CLEAR     28  10  47 CALM      30.34S
PINE COVE        N/A     58  -1   9 CALM      30.04F

$$

SOUTHERN DESERT INCLUDING THE COACHELLA VALLEY

CITY           SKY/WX    TMP DP  RH WIND       PRES   REMARKS
PALM SPRINGS   CLEAR     60  24  25 NW9       30.07F
THOUSAND PALMS   N/A     57  26  30 SE3       30.01F
PALM DESERT      N/A     56  37  47 CALM      26.98S
THERMAL        CLEAR     48  33  56 N5        30.02F
BLYTHE         CLEAR     58  20  22 CALM      30.06S
IMPERIAL AP    CLEAR     54  32  43 SW3       30.02S
EL CENTRO NAS  CLEAR     53  24  32 W8        30.02F
YUMA AZ        PTCLDY    59  25  27 CALM      30.02F

$$

UPPER DESERT

CITY           SKY/WX    TMP DP  RH WIND       PRES   REMARKS
VICTORVILLE AP CLEAR     43  10  26 S6        30.15F
HESPERIA         N/A     46  20  34 W3        30.27S
APPLE VALLEY     N/A     36  22  57 CALM      30.22S
PALMDALE       CLEAR     44  17  33 SW7       30.15S
LANCASTER      CLEAR     40  13  33 CALM      30.15S
EDWARDS AFB    CLEAR     36   4  26 S2        30.13S
DAGGETT        CLEAR     42  10  27 W5        30.14S
29 PALMS N     CLEAR     50  15  24 W5        30.19S
NEEDLES        CLEAR     60  20  21 NW10      30.10S

$$

REGIONAL REPORTS

CITY           SKY/WX    TMP DP  RH WIND       PRES   REMARKS
SANTA BARBARA  CLEAR     50  44  80 CALM      30.00S
SANDBERG       CLEAR     64  13  13 N9        30.21S
MT. WILSON       N/A     59   3  10 MISG        N/A
LAS VEGAS NV   MOCLDY    49  20  31 S10       30.12S
PHOENIX AZ     CLEAR     62  26  25 SE3       30.05F
TIJUANA        CLEAR     61  30  31 CALM      30.04
ENSENADA NW      N/A     67  32  26 NE2       29.98S

$$

OFFSHORE ISLANDS

CITY           SKY/WX    TMP DP  RH WIND       PRES   REMARKS
CATALINA ARPT  CLEAR    N/A N/A N/A N5        30.08S

$$

MARINE AND OFFSHORE BUOY REPORTS

STATION/POSITION SKY/WX   TEMP    WIND        PRES    SWELL
                          AIR SEA DIR/SP/G            HT/PER/DIR
                          (F)     (DEG/KT/KT) (MB)    (FT/S/D)
TANNER BANKS               64 66  310/  8/ 10 1016.4F   3/320/12
S CLEMENTE BASIN           65 66  260/  2/  2 1016.1F   2/250/13
SAN NICOLAS IS.               63                N/A     2/290/13
SO. S. ROSA ISLA           63 63  320/ 12/ 14 1015.7F   2/14
W. S. BARBARA CH           63 64  320/ 16/ 17 1015.6R   3/290/15
M. S. BARBARA CH           65 65  220/  2/  4 1016.1R
S. MONICA BASIN            65 65  280/  2/  4 1016.4F   2/240/14
S PEDRO CHANNEL               66                N/A     2/250/13
DANA POINT                    66                N/A     2/220/13
CMP PENDLETON NS              66                N/A     2/230/14
OCEANSIDE OFFSHR              66                N/A     2/210/13
TORREY PINES OTR              66                N/A     2/240/13
LA JOLLA 1                 65 66   CALM  /  1 1016.3F
MISSION BAY BUOY              66                N/A     2/230/13
SAN DIEGO BAY                 67              1016.8S
POINT LOMA SOUTH              67                N/A     2/280/12

$$



USA.gov is the U.S. government's official web portal to all federal, state and local government web resources and services.